User: anonymous   Login
Location: Unspecified
(0.0000°N, 0.0000°E)
Time: 19:01:10
(UTC+00:00)
Language:

Orbcomm G2 (FM04) - Orbit

View from above orbital plane
View from above orbital plane
View from above satellite
View from above satellite

Ground track
Ground track

The orbit data is extracted from the following two-line orbital elements,

1 25159U 98007C   17084.86165693 +.00000180 +00000-0 +12116-3 0  9993
2 25159 107.9886 117.1913 0042361 061.0413 299.4961 14.29344757994465
Epoch (UTC): 25 March 2017 20:40:47
Eccentricity: 0.0042361
inclination: 107.9886°
perigee height: 763 km
apogee height: 824 km
right ascension of ascending node: 117.1913°
argument of perigee: 61.0413°
revolutions per day: 14.29344757
mean anomaly at epoch: 299.4961°
orbit number at epoch: 99446

The dashed part of the orbit path shows where the satellite is in the earth's shadow,  

DLR